Regional Weather Roundup
Issued by NWS Albany, NY

Home | Current Version | Previous Version | Graphics & Text | Print | Product List | Glossary Off
Versions: 1 2 3 4 5 6 7 8 9 10 11 12 13 14 15 16 17 18 19 20 21 22 23 24 25 26 27 28 29 30 31 32 33 34 35 36 37 38 39 40 41 42 43 44 45 46 47 48 49 50

482
ASUS41 KALY 232210
RWRALY

NEW YORK STATE HOURLY WEATHER ROUNDUP
NATIONAL WEATHER SERVICE ALBANY NY
500 PM EST MON JAN 23 2017

NOTE: "FAIR" INDICATES FEW OR NO CLOUDS BELOW 12,000 FEET WITH NO
SIGNIFICANT WEATHER AND/OR NO OBSTRUCTIONS TO VISIBILITY.

NYZ032-033-038>043-046>054-057>066-NYZ062>081-082-084-232300-
EAST


CITY           SKY/WX    TMP DP  RH WIND       PRES   REMARKS
ALBANY         CLOUDY    36  24  62 NE12      29.88S WCI  28
GLENS FALLS    MOCLDY    35  23  61 NE12G21   29.91F WCI  27
POUGHKEEPSIE   LGT RAIN  36  29  75 NE14G23   29.75F WCI  27
NEWBURGH       LGT RAIN  36  30  80 E17G31    29.74F WCI  25
MONTGOMERY     LGT RAIN  36  29  75 NE17G28   29.71F WCI  26
WHITE PLAINS   LGT RAIN  37  30  75 NE16G25   29.66F WCI  28
ISLIP          LGT RAIN  39  35  86 NE22G45   29.63F WCI  29
NEW YORK CITY  LGT RAIN  40  33  76 NE33G41   29.65F WCI  28
CENTRAL PARK   LGT RAIN  38  33  82 NE23G37   29.67F WCI  27
$$

NYZ005>009-017-018-044>046-055-056-232300-
CENTRAL


CITY           SKY/WX    TMP DP  RH WIND       PRES   REMARKS
FULTON         MOCLDY    37  25  61 E10G17    29.79R WCI  30
SYRACUSE       CLOUDY    35  26  69 E18       29.78R WCI  24
ROME           MOCLDY    35  26  69 E15G21    29.82F WCI  25
ELMIRA         CLOUDY    39  27  62 E12       29.68R WCI  32
BINGHAMTON     CLOUDY    32  23  69 E12G23    29.67R WCI  23
MONTICELLO     CLOUDY    30  27  86 E21G33    29.68F WCI  17
$$

NYZ026>034-041>043-087-232300-
NORTH


CITY           SKY/WX    TMP DP  RH WIND       PRES   REMARKS
WATERTOWN      CLOUDY    35  31  85 NE13      29.81F WCI  26
FORT DRUM      NOT AVBL
OGDENSBURG     FAIR      32  28  83 NE12G23   29.88F WCI  23
MASSENA        CLOUDY    32  25  75 NE22G28   29.93F WCI  19
SARANAC LAKE   CLOUDY    29  21  72 E15       29.83F WCI  18
PLATTSBURGH    MOCLDY    35  22  58 SE9       29.98S WCI  28
$$

NYZ001>004-010>016-019>021-085-232300-
WEST


CITY           SKY/WX    TMP DP  RH WIND       PRES   REMARKS
NIAGARA FALLS  PTCLDY    41  32  70 E16       29.70R
BUFFALO        MOCLDY    40  33  76 NE16      29.69R WCI  31
DUNKIRK        CLEAR     43  37  79 NE9       29.65R
JAMESTOWN      CLOUDY    43  36  75 NE8       29.61R
WELLSVILLE     CLOUDY    40  33  76 E10       29.63R WCI  33
ROCHESTER      CLOUDY    39  29  67 E14       29.74S WCI  31
PENN YAN       MOCLDY    38  29  70 VRB7      29.72R WCI  33
$$

             KEY
       WCI = WIND CHILL INDEX
       VSB = VISIBILITY
       HX  = HEAT INDEX
$$




USA.gov is the U.S. government's official web portal to all federal, state and local government web resources and services.